Location: Muenchen
(48.1800°N, 11.5800°E)
Time: 16:09:27
(UTC+01:00)

Tiros 1 - Visible Passes

Search period start: 19 December 2014 00:00
Search period end: 29 December 2014 00:00
Orbit: 632 x 667 km, 48.4° (Epoch: 18 December)

Date Brightness Start Highest point End Pass type
(mag) Time Alt. Az. Time Alt. Az. Time Alt. Az.
19 Dec 9.8 04:07:04 18° E 04:07:04 18° E 04:08:20 10° E visible
19 Dec 7.2 05:44:48 53° W 05:45:47 71° SSW 05:50:36 10° ESE visible
20 Dec 9.0 04:32:52 30° E 04:32:52 30° E 04:35:18 10° E visible
20 Dec 7.7 06:10:36 30° W 06:12:35 47° SSW 06:17:12 10° SE visible
21 Dec 8.0 04:58:42 47° SE 04:58:42 47° SE 05:02:11 10° ESE visible
21 Dec 8.5 06:36:25 17° W 06:39:13 28° SW 06:43:18 10° SSE visible
22 Dec 10.3 03:46:50 10° E 03:46:50 10° E 03:46:53 10° E visible
22 Dec 7.7 05:24:34 48° S 05:24:34 48° S 05:28:50 10° SE visible
22 Dec 9.2 07:02:59 10° WSW 07:05:40 15° SW 07:08:21 10° S visible
23 Dec 9.8 04:12:45 16° ESE 04:12:45 16° ESE 04:13:47 10° ESE visible
23 Dec 8.3 05:50:29 29° SW 05:50:50 29° SW 05:54:58 10° SSE visible
24 Dec 9.3 04:38:43 21° SE 04:38:43 21° SE 04:40:26 10° SE visible
24 Dec 9.0 06:16:27 15° SW 06:17:17 16° SW 06:20:08 10° S visible
25 Dec 9.1 05:04:44 20° S 05:04:44 20° S 05:06:37 10° SSE visible
26 Dec 9.4 05:30:50 13° SSW 05:30:50 13° SSW 05:31:53 10° S visible
